Location: Bacharowice
(49.9333°N, 19.5833°E)
Time: 11:31:59
(UTC+00:00)

USA 305 - Pass Details

Date: 24 September 2021
Orbit: 547 x 588 km, 54.0° (Epoch: 03 October)

Event Time Altitude Azimuth Distance (km) Brightness Sun altitude
Rises 17:09:15 0° 278° (W) 2,734 9.2 -6.3°
Reaches altitude 10° 17:11:32 10° 284° (WNW) 1,846 7.3 -6.7°
Maximum altitude 17:15:36 47° 359° (N) 749 3.6 -7.3°
Drops below altitude 10° 17:19:43 10° 75° (ENE) 1,871 5.0 -8.0°
Enters shadow 17:20:03 - 76° (ENE) 1,994 5.1 -8.0°
